Regional Weather Roundup
Issued by NWS

Home | Current Version | Previous Version | Graphics & Text | Print | Product List | Glossary On
Versions: 1 2 3 4 5 6 7 8 9 10 11 12 13 14 15 16 17 18 19 20 21 22 23 24 25 26 27 28 29 30 31 32 33 34 35 36 37 38 39 40 41 42 43 44 45 46 47 48 49 50
000
ASUS45 KBOU 012110
RWRCO

WEATHER ROUNDUP FOR COLORADO
NATIONAL WEATHER SERVICE DENVER/BOULDER CO
300 PM MDT WED JUL 01 2015

NOTE: "FAIR" INDICATES FEW OR NO CLOUDS BELOW 12000 FEET WITH NO
SIGNIFICANT WEATHER AND/OR OBSTRUCTIONS TO VISIBILITY.

COZ001>005-013-030-031-012200-
...NORTHWEST COLORADO...

CITY           SKY/WX    TMP DP  RH WIND       PRES   REMARKS
CRAIG          MOSUNNY   85  48  27 SW5       30.21F
HAYDEN         PTSUNNY   82  45  26 SE5       30.24F
MEEKER         MOSUNNY   86  52  30 CALM      30.21F
MOUNT WERNER   NOT AVBL
STEAMBOAT SPGS PTSUNNY   76  53  45 NE8       30.28F
WALDEN         CLOUDY    59  46  63 S5G22     30.37F
$$

COZ006>008-011-012200-
...WEST CENTRAL VALLEYS...

CITY           SKY/WX    TMP DP  RH WIND       PRES   REMARKS
GRAND JUNCTION PTSUNNY   94  47  20 S8        30.03F
MONTROSE       MOSUNNY   93  41  16 N9        30.12F
EAGLE          PTSUNNY   82  46  28 E6        30.24R
RIFLE          PTSUNNY   91  46  21 VRB3      30.11F
DELTA          MOSUNNY   95  44  17 S5        30.07F
NUCLA          MOSUNNY   93  36  13 N7        30.16F
$$

COZ017>023-064>068-012200-
...SOUTHWEST COLORADO...

CITY           SKY/WX    TMP DP  RH WIND       PRES   REMARKS
DURANGO        MOSUNNY   89  43  20 NW6       30.16F
CORTEZ         SUNNY     94  45  18 W10       30.11F
PAGOSA SPRINGS MOSUNNY   87  42  20 S9G16     30.26F THUNDER
TELLURIDE      PTSUNNY   79  43  27 NW13G18   30.42F
WOLF CREEK PAS NOT AVBL
$$

COZ009-010-012-014-032>034-037-058>063-012200-
...CENTRAL COLORADO...

CITY           SKY/WX    TMP DP  RH WIND       PRES   REMARKS
ASPEN          PTSUNNY   80  43  26 VRB7G17   30.30R
BUENA VISTA    PTSUNNY   73  46  37 W10       30.32S
COPPER MTN     PTSUNNY   64  34  32 W24G31    30.67S
BERTHOUD PASS  TSTM      48  37  66 MISG      30.73S
COTTONWOOD PAS NOT AVBL
GUNNISON       PTSUNNY   81  43  26 SW8       30.30F
KREMMLING      CLOUDY    77  39  25 N5        30.31R
LEADVILLE      PTSUNNY   74  34  23 W22G29    30.46S
MONARCH PASS   PTSUNNY   55  37  50 N3        30.76F
SALIDA         PTSUNNY   71  53  52 W12G21    30.35S
SUNLIGHT       CLOUDY    63  46  55 CALM      30.60F
WILKERSON PASS CLOUDY    55  46  71 E12G17    30.63R
$$

COZ069>075-012200-
...SAN LUIS VALLEY/SANGRE DE CRISTO MOUNTAINS...

CITY           SKY/WX    TMP DP  RH WIND       PRES   REMARKS
ALAMOSA        SUNNY     84  42  22 VRB7      30.25F
LA VETA PASS   PTSUNNY   64  45  48 MISG      30.51F THUNDER
SAGUACHE       PTSUNNY   84  41  21 SW7       30.27F
$$

COZ035-036-038>040-012200-
...NORTHERN COLORADO FRONT RANGE...

CITY           SKY/WX    TMP DP  RH WIND       PRES   REMARKS
DENVER INTL AP PTSUNNY   88  48  25 CALM      30.12F
DMNS CITY PARK   N/A     83  48  29 S5G14     30.13R
AURORA         PTSUNNY   83  51  33 SE2       30.16F
FRONT RANGE AP PTSUNNY   86  54  32 NE3       30.14F
ERIE MUNI ARPT PTSUNNY   86  50  28 SW3       30.12S
BOULDER MUN AP PTSUNNY   82  52  34 W3        30.13S
CENTENNIAL     PTSUNNY   82  50  32 NE6       30.17F
BROOMFIELD     PTSUNNY   84  50  30 CALM      30.17S
FORT COLLINS   PTSUNNY   86  55  35 SW7       30.09S
LONGMONT       PTSUNNY   85  53  33 W7        30.14R
$$

COZ041-046-047-076>085-087-088-012200-
...PIKES PEAK/PALMER DIVIDE AND SOUTHERN FOOTHILLS...

CITY           SKY/WX    TMP DP  RH WIND       PRES   REMARKS
COLO. SPRINGS  PTSUNNY   83  49  30 E10       30.19F
A. F. ACADEMY  MOSUNNY   80  47  31 E9        30.21S
ELLICOTT       MOSUNNY  N/A N/A N/A SE6       30.18F
FALCON         MOSUNNY   83  46  26 NE6       30.25F
FORT CARSON    DRIZZLE   82  56  41 E8        30.16F
LIMON          MOSUNNY   86  52  30 E6        30.12F
MONUMENT HILL  MOSUNNY   75  52  43 SE9       30.27S
TRINIDAD       PTSUNNY   87  48  25 MISG      30.16S
$$

COZ042>045-048>051-090-091-012200-
...NORTHEAST COLORADO...

CITY           SKY/WX    TMP DP  RH WIND       PRES   REMARKS
GREELEY ARPT   MOSUNNY   93  52  24 S6        30.07F
AKRON          SUNNY     91  51  25 N8        30.07F
BURLINGTON     MOSUNNY   93  48  21 E7        30.03F
WRAY           MOSUNNY   95  48  19 NE5       29.99F
STERLING       SUNNY     93  54  26 SE9         N/A
HOLYOKE        SUNNY     97  52  21 NE10      30.00F
FORT MORGAN    PTSUNNY   89  50  26 S6        30.06F
$$

COZ086-089-092>099-012200-
...SOUTHEAST COLORADO...

CITY           SKY/WX    TMP DP  RH WIND       PRES   REMARKS
PUEBLO         SUNNY     96  49  20 CALM      30.05F
LA JUNTA       SUNNY     97  52  21 NE14G20   30.01F
LAMAR          SUNNY     98  53  22 NE12      29.96F
SPRINGFIELD      N/A     96  49  20 N14G22    30.01F
$$



USA.gov is the U.S. government's official web portal to all federal, state and local government web resources and services.